{"data":{"norad_id":57342,"intl_designator":"2023-099Q","name":"STARLINK-6375","alt_names":[],"object_type":"PAYLOAD","status":"ACTIVE","operator":null,"country":"US","launch_date":"2023-07-16","launch_site_code":"AFETR","launch_vehicle":null,"mission":null,"orbit_class":"UNKNOWN","rcs_meters":null,"size_class":null,"mass_kg":null,"dimensions":null,"purposes":["comms"],"wikipedia_slug":null,"has_3d_model":false,"image_url":null,"decayed_at":null,"tle_current":{"epoch":"2026-09-20T14:17:38.568192Z","epoch_age_seconds":115933,"freshness":"FRESH","line1":"1 57342U 23099Q   26263.59558528 -.00000143  00000+0  43138-5 0  9992","line2":"2 57342  43.0015 228.3615 0001075 264.3934  95.6795 15.27576519175920","mean_motion":15.27576519,"eccentricity":0.0001075,"inclination_deg":43.0015,"raan_deg":228.3615,"arg_perigee_deg":264.3934,"mean_anomaly_deg":95.6795,"bstar":4.3138e-6,"rev_number":17592,"period_min":94.266963526166,"perigee_km":482.32194079989,"apogee_km":483.79709805157,"semimajor_km":6861.1965194257,"source":"CELESTRAK","updated_at":"2026-09-21T09:00:33.598738Z"}}}